User: anonymous   Login
Location: Unspecified
(0.0000°N, 0.0000°E)
Time: 10:24:29
(UTC+00:00)
Language:

CRYOSAT 2 - Orbit

View from above orbital plane
View from above orbital plane
View from above satellite
View from above satellite

Ground track
Ground track

The orbit data is extracted from the following two-line orbital elements,

1 36508U 10013A   21136.68928886  .00000051  00000-0  11771-4 0  9992
2 36508  92.0145 188.2306 0007267 139.8676 220.3069 14.51910713588583
Epoch (UTC): 16 May 2021 16:32:34
Eccentricity: 0.0007267
inclination: 92.0145°
perigee height: 714 km
apogee height: 724 km
right ascension of ascending node: 188.2306°
argument of perigee: 139.8676°
revolutions per day: 14.51910713
mean anomaly at epoch: 220.3069°
orbit number at epoch: 58858

The dashed part of the orbit path shows where the satellite is in the earth's shadow,  

DLR